Location: Newark
(40.7066°N, 111.8219°W)
Time: 20:32:13
(UTC+00:00)

Transit 2A Rocket - Pass Details

Date: 20 November 2019
Orbit: 594 x 909 km, 66.7° (Epoch: 05 December)

Event Time Altitude Azimuth Distance (km) Brightness Sun altitude
Rises 03:28:30 0° 170° (S) 3,120 - -38.1°
Reaches altitude 10° 03:31:33 10° 152° (SSE) 2,142 - -38.7°
Maximum altitude 03:34:49 18° 109° (ESE) 1,599 - -39.3°
Drops below altitude 10° 03:37:57 10° 66° (ENE) 2,036 - -39.9°
Sets 03:40:45 0° 47° (NE) 2,907 - -40.4°
